STARLINK-33909, 63804

Orbit data source: Space-Track

STARLINK-33909, 63804 is a payload satellite owned by SpaceX/Seattle (US) in LEO that was launched on Sun, 04 May 2025 UTC via an FALCON 9 launch vehicle from the Air Force Eastern Test Range (AFETR). Payload-class satellites include a variety of spacecraft equipped with specific instruments for various scientific and technological missions. These include communications satellites like Starlink; space stations such as the ISS; scientific satellites like the Hubble; Earth observation satellites from companies like Planet Labs, Umbra, and HawkEye 360; GPS; miniature CubeSats for education and research; and military/defense satellites.

Loading next visibility...
Identifier
63804, 2025-092A
Orbit
LEO
Last TLE update
16 hours ago
Origin
Manufacturer
SpaceX/Seattle
Mission
Operational Commercial Communications
Bus & Motor
STARLINK V2MO, Unknown motor
Mass
575 kg wet, ~530 kg dry
Launch date (UTC)
2025-05-04 (2 months ago)
Launch vehicle
FALCON 9
Launch site
Air Force Eastern Test Range (AFETR)
Object type
Payload
Rocket body
Debris
Shape & HBR
Box + 1 Pan, 29 m
Radar Cross Section
41.120 m², Large (>1 m²)

Expand to show TLE details & history

TLE from 16 hours ago
0 STARLINK-33909
1 63804U 25092A   25188.97363261  .00021715  00000-0  79612-3 0  9994
2 63804  43.0008 114.9905 0001827 237.3756 122.6920 15.27587838 11185
Epoch: 2025-07-07T23:22Z
TLE epoch observation values (Epoch: 2025-07-07T23:22:01.857Z)
Latitude
0.00002°
Longitude
-161.6925°
Altitude
483.478 km
Speed
7.625 km/s
True Right ascension
07h 39m 57s
True Declination
0° 00' 00"
Sunlit
Object was in daylight at epoch
Visualization orbit readout
Latitude
-25.61124°
Longitude
163.90951°
Altitude
489.078 km
Speed
7.621 km/s
Apparent Right ascension
08h 51m 06s
Apparent Declination
-62° 49' 05"
Sunlit
Object is in daylight
Visualization observer readout
Local Sidereal Time
03:00:07
Azimuth
146.658° SSE
Elevation
-33.85°
Doppler factor
1
Orbital elements
Apogee altitude
486.225 km
Perigee altitude
483.717 km
Semi-major axis
6,863.108 km
Eccentricity
0.00018
Inclination
43.0008°
RAAN
114.9905°
Arg. of periapsis
237.3756°
True anomaly
Unknown
Mean anomaly
122.692°
Eccentric anomaly
Unknown
Mean motion
3.81735 °/min
Orbital period
94.31 mins
BSTAR
0.00079612
Loading maneuver chart data...
Loading SW <> Apogee altitude chart data...
Loading historical data...
Loading historical data...
Loading historical data...
Loading historical data...
Loading historical data...
Loading historical data...
Loading historical data...

STARLINK-33909 Visibility forecast

Observer location: undefined°, undefined°

Span
Click to sort rows by Start time (UTC) header in descending order
Start Az.
Max El. time (UTC)
Max El. Az.
Max El.
End time (UTC)
End Az.
4 mins2025-07-08 21:31:20.664Z184.352° SSW2025-07-08 21:33:20.664Z148.098° SSE18.059°2025-07-08 21:35:20.664Z108.849° ESE
5 mins2025-07-08 23:10:20.664Z243.048° WSW2025-07-08 23:12:20.664Z107.368° ESE43.917°2025-07-08 23:15:20.664Z73.313° E
5 mins2025-07-09 00:49:20.664Z291.179° WNW2025-07-09 00:51:20.664Z6.861° NNE38.109°2025-07-09 00:54:20.664Z72.743° E
5 mins2025-07-09 02:28:20.664Z293.25° NW2025-07-09 02:30:20.664Z7.543° NNE43.896°2025-07-09 02:33:20.664Z99.594° ESE
5 mins2025-07-09 04:07:20.664Z258.338° W2025-07-09 04:09:20.664Z204.844° SW27.178°2025-07-09 04:12:20.664Z149.091° SSE
|